When you browse on this site, cookies collect data to enhance your experience and personalize the content and advertising you see.
Visit our Privacy Policy to learn more. By continuing to use the site, you agree to this use of cookies and data.
EN

Hourly Weather Scarborough

Today, 25 September, Friday

Time Temperature Precipitation Wind Pressure Humidity
00:00 +7°C° 0 mm 9 mps 743 mmHg 85%
01:00 +7°C° 0.5 mm 9 mps 743 mmHg 83%
02:00 +7°C° 0.5 mm 10 mps 744 mmHg 81%
03:00 +7°C° 0.5 mm 11 mps 744 mmHg 79%
04:00 +7°C° 0.1 mm 11 mps 744 mmHg 80%
05:00 +6°C° 0.1 mm 11 mps 744 mmHg 81%
06:00 +7°C° 0 mm 10 mps 744 mmHg 81%
07:00 +7°C° 0.3 mm 12 mps 745 mmHg 79%
08:00 +8°C° 0.3 mm 13 mps 745 mmHg 78%
09:00 +8°C° 0.3 mm 14 mps 745 mmHg 76%
10:00 +8°C° 0.3 mm 14 mps 746 mmHg 75%
11:00 +9°C° 0.3 mm 14 mps 746 mmHg 74%
12:00 +9°C° 0.3 mm 15 mps 747 mmHg 74%
13:00 +9°C° 0.2 mm 15 mps 747 mmHg 71%
14:00 +9°C° 0.2 mm 15 mps 748 mmHg 68%
15:00 +9°C° 0.2 mm 16 mps 748 mmHg 65%
16:00 +9°C° 0.1 mm 15 mps 749 mmHg 67%
17:00 +8°C° 0.1 mm 14 mps 749 mmHg 70%
18:00 +8°C° 0.1 mm 13 mps 750 mmHg 72%
19:00 +8°C° 0.2 mm 13 mps 751 mmHg 73%
20:00 +7°C° 0.2 mm 13 mps 751 mmHg 73%
21:00 +7°C° 0.2 mm 13 mps 752 mmHg 74%
22:00 +7°C° 0.1 mm 12 mps 752 mmHg 74%
23:00 +7°C° 0.1 mm 12 mps 752 mmHg 75%

Tomorrow, 26 September, Saturday

Time Temperature Precipitation Wind Pressure Humidity
00:00 +6°C° 0.1 mm 11 mps 752 mmHg 75%
01:00 +5°C° 0.1 mm 12 mps 752 mmHg 75%
02:00 +5°C° 0.1 mm 12 mps 752 mmHg 74%
03:00 +5°C° 0.1 mm 12 mps 752 mmHg 74%
04:00 +5°C° 0.1 mm 12 mps 753 mmHg 75%
05:00 +5°C° 0.1 mm 12 mps 753 mmHg 76%
06:00 +4°C° 0.1 mm 11 mps 753 mmHg 76%
07:00 +5°C° 0.1 mm 12 mps 753 mmHg 74%
08:00 +7°C° 0.1 mm 12 mps 753 mmHg 72%
09:00 +8°C° 0.1 mm 12 mps 754 mmHg 70%
10:00 +8°C° 0 mm 12 mps 754 mmHg 71%
11:00 +9°C° 0 mm 12 mps 754 mmHg 72%
12:00 +9°C° 0 mm 12 mps 755 mmHg 73%
13:00 +9°C° 0 mm 12 mps 755 mmHg 73%
14:00 +9°C° 0 mm 12 mps 755 mmHg 72%
15:00 +9°C° 0 mm 12 mps 756 mmHg 71%
16:00 +9°C° 0 mm 12 mps 756 mmHg 72%
17:00 +8°C° 0 mm 12 mps 756 mmHg 73%
18:00 +8°C° 0 mm 12 mps 756 mmHg 74%
19:00 +8°C° 0 mm 12 mps 757 mmHg 75%
20:00 +7°C° 0 mm 11 mps 757 mmHg 76%
21:00 +7°C° 0 mm 11 mps 757 mmHg 77%
22:00 +7°C° 0 mm 11 mps 757 mmHg 76%
23:00 +7°C° 0 mm 11 mps 757 mmHg 75%

Day after tomorrow, 27 September, Sunday

Time Temperature Precipitation Wind Pressure Humidity
00:00 +8°C° 0 mm 11 mps 757 mmHg 74%
01:00 +8°C° 0 mm 12 mps 757 mmHg 75%
02:00 +8°C° 0 mm 12 mps 757 mmHg 76%
03:00 +8°C° 0 mm 12 mps 757 mmHg 77%
04:00 +8°C° 0 mm 11 mps 757 mmHg 77%
05:00 +7°C° 0 mm 11 mps 757 mmHg 78%
06:00 +7°C° 0 mm 10 mps 757 mmHg 79%
07:00 +8°C° 0 mm 10 mps 757 mmHg 78%
08:00 +8°C° 0 mm 10 mps 757 mmHg 78%
09:00 +10°C° 0 mm 9 mps 757 mmHg 77%
10:00 +10°C° 0 mm 9 mps 757 mmHg 77%
11:00 +10°C° 0 mm 9 mps 757 mmHg 76%
12:00 +10°C° 0 mm 8 mps 757 mmHg 75%
13:00 +10°C° 0 mm 8 mps 757 mmHg 77%
14:00 +10°C° 0 mm 8 mps 756 mmHg 78%
15:00 +10°C° 0 mm 8 mps 756 mmHg 79%
16:00 +9°C° 0 mm 7 mps 756 mmHg 82%
17:00 +9°C° 0 mm 7 mps 756 mmHg 85%
18:00 +8°C° 0 mm 6 mps 756 mmHg 87%
19:00 +8°C° 0 mm 6 mps 756 mmHg 88%
20:00 +7°C° 0 mm 5 mps 756 mmHg 89%
21:00 +7°C° 0 mm 4 mps 756 mmHg 91%
22:00 +7°C° 0 mm 4 mps 756 mmHg 90%
23:00 +7°C° 0 mm 4 mps 756 mmHg 90%

28 September, Monday

Time Temperature Precipitation Wind Pressure Humidity
00:00 +7°C° 0 mm 3 mps 756 mmHg 90%
01:00 +7°C° 0 mm 3 mps 755 mmHg 88%
02:00 +7°C° 0 mm 3 mps 755 mmHg 87%
03:00 +7°C° 0 mm 3 mps 755 mmHg 85%
04:00 +7°C° 0 mm 3 mps 755 mmHg 83%
05:00 +7°C° 0 mm 2 mps 754 mmHg 80%
06:00 +7°C° 0 mm 2 mps 754 mmHg 78%
07:00 +8°C° 0 mm 2 mps 754 mmHg 73%
08:00 +9°C° 0 mm 2 mps 754 mmHg 68%
09:00 +12°C° 0 mm 2 mps 754 mmHg 63%
10:00 +12°C° 0 mm 3 mps 754 mmHg 65%
11:00 +13°C° 0 mm 3 mps 754 mmHg 67%
12:00 +16°C° 0 mm 3 mps 754 mmHg 69%
13:00 +16°C° 0 mm 3 mps 754 mmHg 71%
14:00 +17°C° 0 mm 4 mps 753 mmHg 74%
15:00 +17°C° 0 mm 4 mps 753 mmHg 76%
16:00 +15°C° 0 mm 4 mps 754 mmHg 81%
17:00 +14°C° 0 mm 4 mps 754 mmHg 85%
18:00 +12°C° 0 mm 4 mps 755 mmHg 90%
19:00 +10°C° 0 mm 5 mps 755 mmHg 90%
20:00 +9°C° 0 mm 5 mps 756 mmHg 90%
21:00 +9°C° 0 mm 5 mps 756 mmHg 89%
22:00 +8°C° 0 mm 5 mps 756 mmHg 89%
23:00 +8°C° 0 mm 5 mps 757 mmHg 88%

29 September, Tuesday

Time Temperature Precipitation Wind Pressure Humidity
00:00 +7°C° 0 mm 4 mps 757 mmHg 87%
01:00 +7°C° 0 mm 4 mps 757 mmHg 88%
02:00 +7°C° 0 mm 4 mps 757 mmHg 88%
03:00 +6°C° 0 mm 4 mps 758 mmHg 89%
04:00 +7°C° 0 mm 3 mps 758 mmHg 88%
05:00 +7°C° 0 mm 3 mps 758 mmHg 87%
06:00 +7°C° 0 mm 2 mps 758 mmHg 87%
07:00 +9°C° 0 mm 2 mps 759 mmHg 82%
08:00 +10°C° 0 mm 2 mps 759 mmHg 78%
09:00 +13°C° 0 mm 2 mps 759 mmHg 73%
10:00 +14°C° 0 mm 2 mps 759 mmHg 69%
11:00 +15°C° 0 mm 2 mps 759 mmHg 65%
12:00 +16°C° 0 mm 2 mps 760 mmHg 61%
13:00 +16°C° 0 mm 2 mps 759 mmHg 60%
14:00 +16°C° 0 mm 2 mps 759 mmHg 60%
15:00 +16°C° 0 mm 3 mps 759 mmHg 60%
16:00 +14°C° 0.1 mm 3 mps 759 mmHg 66%
17:00 +13°C° 0.1 mm 3 mps 759 mmHg 71%
18:00 +12°C° 0.1 mm 3 mps 759 mmHg 77%
19:00 +12°C° 0 mm 3 mps 759 mmHg 76%
20:00 +12°C° 0 mm 2 mps 758 mmHg 76%
21:00 +12°C° 0 mm 2 mps 758 mmHg 75%
22:00 +12°C° 0 mm 2 mps 758 mmHg 76%
23:00 +12°C° 0 mm 2 mps 758 mmHg 76%

30 September, Wednesday

Time Temperature Precipitation Wind Pressure Humidity
00:00 +12°C° 0 mm 2 mps 757 mmHg 77%
01:00 +10°C° 0 mm 2 mps 757 mmHg 79%
02:00 +9°C° 0 mm 3 mps 756 mmHg 82%
03:00 +9°C° 0 mm 3 mps 756 mmHg 85%
04:00 +7°C° 0 mm 4 mps 755 mmHg 84%
05:00 +7°C° 0 mm 4 mps 755 mmHg 83%
06:00 +7°C° 0 mm 4 mps 755 mmHg 83%
07:00 +8°C° 0 mm 5 mps 754 mmHg 81%
08:00 +9°C° 0 mm 6 mps 754 mmHg 80%
09:00 +10°C° 0 mm 6 mps 753 mmHg 79%
10:00 +11°C° 0 mm 7 mps 753 mmHg 75%
11:00 +12°C° 0 mm 8 mps 752 mmHg 72%
12:00 +13°C° 0 mm 8 mps 751 mmHg 68%
13:00 +12°C° 0.2 mm 9 mps 750 mmHg 73%
14:00 +12°C° 0.2 mm 9 mps 749 mmHg 78%
15:00 +11°C° 0.2 mm 9 mps 748 mmHg 82%
16:00 +11°C° 1.1 mm 10 mps 747 mmHg 85%
17:00 +11°C° 1.1 mm 11 mps 746 mmHg 87%
18:00 +10°C° 1.1 mm 12 mps 745 mmHg 89%
19:00 +11°C° 0.6 mm 11 mps 745 mmHg 90%
20:00 +11°C° 0.6 mm 10 mps 745 mmHg 91%
21:00 +11°C° 0.6 mm 9 mps 745 mmHg 91%
22:00 +11°C° 0.7 mm 8 mps 744 mmHg 93%
23:00 +11°C° 0.7 mm 7 mps 743 mmHg 95%
Show more